TimeEST,TemperatureF,Dew PointF,Humidity,Sea Level PressureIn,VisibilityMPH,Wind Direction,Wind SpeedMPH,Gust SpeedMPH,PrecipitationIn,Events,Conditions,WindDirDegrees,DateUTC
12:53 AM,5.0,-5.1,63,30.09,10.0,WSW,8.1,-,N/A,,Clear,250,2013-02-18 05:53:00
1:53 AM,3.9,-5.1,66,30.12,10.0,WSW,12.7,19.6,N/A,,Clear,250,2013-02-18 06:53:00
2:53 AM,3.0,-5.1,69,30.13,10.0,WSW,10.4,-,N/A,,Clear,250,2013-02-18 07:53:00
3:53 AM,3.0,-6.0,66,30.15,10.0,WSW,10.4,-,N/A,,Clear,250,2013-02-18 08:53:00
4:53 AM,1.9,-6.0,69,30.19,10.0,WSW,10.4,-,N/A,,Clear,240,2013-02-18 09:53:00
5:53 AM,1.9,-7.1,66,30.21,10.0,WSW,10.4,-,N/A,,Clear,250,2013-02-18 10:53:00
6:53 AM,1.0,-7.1,69,30.23,10.0,SW,10.4,-,N/A,,Clear,230,2013-02-18 11:53:00
7:53 AM,1.9,-6.0,69,30.26,10.0,WSW,12.7,-,N/A,,Clear,240,2013-02-18 12:53:00
8:53 AM,5.0,-4.0,66,30.23,10.0,WSW,13.8,-,N/A,,Clear,250,2013-02-18 13:53:00
9:53 AM,6.1,-4.0,63,30.28,10.0,WSW,12.7,-,N/A,,Clear,250,2013-02-18 14:53:00
10:53 AM,9.0,-2.9,59,30.27,10.0,WSW,12.7,-,N/A,,Clear,250,2013-02-18 15:53:00
11:53 AM,12.0,-2.0,53,30.26,10.0,WSW,16.1,-,N/A,,Clear,250,2013-02-18 16:53:00
12:53 PM,15.1,-0.9,49,30.24,10.0,SW,13.8,18.4,N/A,,Clear,230,2013-02-18 17:53:00
1:53 PM,16.0,-2.0,45,30.23,10.0,West,12.7,-,N/A,,Clear,260,2013-02-18 18:53:00
2:53 PM,18.0,-0.9,44,30.23,10.0,WSW,15.0,-,N/A,,Clear,240,2013-02-18 19:53:00
3:53 PM,18.0,-0.0,45,30.22,10.0,SW,9.2,-,N/A,,Clear,230,2013-02-18 20:53:00
4:53 PM,18.0,-0.0,45,30.21,10.0,SW,9.2,-,N/A,,Clear,230,2013-02-18 21:53:00
5:53 PM,16.0,-0.9,47,30.22,10.0,SW,4.6,-,N/A,,Clear,230,2013-02-18 22:53:00
6:53 PM,12.9,-2.9,49,30.22,10.0,Calm,Calm,-,N/A,,Clear,0,2013-02-18 23:53:00
7:53 PM,7.0,-5.1,58,30.20,10.0,Calm,Calm,-,N/A,,Clear,0,2013-02-19 00:53:00
8:53 PM,7.0,-2.0,67,30.19,10.0,Calm,Calm,-,N/A,,Mostly Cloudy,0,2013-02-19 01:53:00
9:53 PM,7.0,-2.0,67,30.16,10.0,Calm,Calm,-,N/A,,Scattered Clouds,0,2013-02-19 02:53:00
10:53 PM,7.0,-0.9,70,30.14,10.0,Calm,Calm,-,N/A,,Scattered Clouds,0,2013-02-19 03:53:00
11:53 PM,10.0,1.9,70,30.12,10.0,Calm,Calm,-,N/A,,Scattered Clouds,0,2013-02-19 04:53:00